Regional Weather Roundup
Issued by NWS

Home | Current Version | Previous Version | Graphics & Text | Print | Product List | Glossary On
Versions: 1 2 3 4 5 6 7 8 9 10 11 12 13 14 15 16 17 18 19 20 21 22 23 24 25 26 27 28 29 30 31 32 33 34 35 36 37 38 39 40 41 42 43 44 45 46 47 48 49 50
000
ASUS43 KIND 311859
RWRIN

WEATHER ROUNDUP FOR INDIANA
NATIONAL WEATHER SERVICE INDIANAPOLIS IN
300 PM EDT MON AUG 31 2015

NOTE: "FAIR" INDICATES FEW OR NO CLOUDS BELOW 12,000 FEET WITH NO
SIGNIFICANT WEATHER AND/OR OBSTRUCTIONS TO VISIBILITY.

* - STATION DOES NOT REPORT WEATHER SUCH AS PRECIPITATION OR FOG.

+ - STATION NOT QUALITY CONTROLLED BY THE NATIONAL WEATHER SERVICE.
    USE DATA WITH CAUTION...ESPECIALLY DEWPOINT AND RELATIVE
    HUMIDITY OBSERVATIONS.

INZ001>003-010>013-019-020-312000-
NORTHWEST INDIANA

CITY           SKY/WX    TMP DP  RH WIND       PRES   REMARKS
GARY /AIRPORT/ PTSUNNY   82  68  61 VRB5      30.06F HAZE
KNOX *+        MOSUNNY   84  66  54 SW5       30.07F
MONTICELLO +   PTSUNNY   85  71  63 SW5       30.06F
RENSSELAER +   MOSUNNY   86  72  62 S6        30.06F

$$

LMZ046-743>745-312000-
SOUTHERN LAKE MICHIGAN

STATION/POSITION TIME  TEMP    WIND        PRES    WAVE
                       AIR SEA DIR/SP/G            HT
                 (UTC) (F)     (DEG/KT/KT) (MB)    (FT)
BURNS HARBOR     1800   76      40/  6/  7 1019.0F
MICHIGAN CITY    1800   72     360/  3/  4   N/A
5NW MICH CITY    1800   73 73   20/  4/  4   N/A     0

$$

INZ004-005-014>016-021>024-312000-
NORTH CENTRAL INDIANA

CITY           SKY/WX    TMP DP  RH WIND       PRES   REMARKS
ELKHART        PTSUNNY   82  66  57 SW8       30.08F
GOSHEN         MOSUNNY   85  69  58 VRB6      30.08F
SOUTH BEND     MOSUNNY   82  69  64 SW7       30.08F

$$

INZ006>009-017-018-025>027-312000-
NORTHEAST INDIANA

CITY           SKY/WX    TMP DP  RH WIND       PRES   REMARKS
ANGOLA *+      MOSUNNY   86  70  58 VRB6      30.08F
FORT WAYNE     MOSUNNY   85  68  56 VRB5      30.08F

$$

INZ028-029-035-036-043>045-051>053-312000-
WEST CENTRAL INDIANA

CITY           SKY/WX    TMP DP  RH WIND       PRES   REMARKS
CRAWFORDSVL +  SUNNY     83  60  45 SW7       30.08F
GREENCASTLE +  PTSUNNY   82  64  54 S6        30.10F
LAFAYETTE      PTSUNNY   86  66  51 S9        30.06F
TERRE HAUTE    MOSUNNY   87  69  54 S13       30.09F

$$

INZ030>032-037>040-046>048-054>057-064-065-312000-
CENTRAL INDIANA

CITY           SKY/WX    TMP DP  RH WIND       PRES   REMARKS
ANDERSON       PTSUNNY   84  61  45 S6        30.10F
COLUMBUS       MOSUNNY   84  64  51 W5        30.10F
FRANKFORT +    MOSUNNY   87  69  55 S6        30.10F
GREENWOOD *+   MOSUNNY   84  64  51 SW3       30.10F
INDIANAPOLIS   MOSUNNY   85  66  53 S10       30.09F
-EAGLE CREEK   PTSUNNY   85  67  54 SW8       30.08F
KOKOMO *+      CLOUDY    84  66  54 W7        30.08S
MT COMFORT *+  MOSUNNY   86  59  39 SW10      30.10F
SHELBYVILLE    MOSUNNY   87  67  51 SW7       30.09F

$$

INZ033-034-041-042-049-050-058-059-312000-
EAST CENTRAL INDIANA

CITY           SKY/WX    TMP DP  RH WIND       PRES   REMARKS
MUNCIE         PTSUNNY   82  68  62 W7        30.09F

$$

INZ060-061-067>069-081>083-085>088-312000-
SOUTHWEST INDIANA

CITY           SKY/WX    TMP DP  RH WIND       PRES   REMARKS
EVANSVILLE     CLOUDY    85  68  56 SW5       30.10F
HUNTINGBURG *+ SUNNY     84  68  58 SW5       30.11S

$$

INZ062-063-066-070>080-084-089>092-312000-
SOUTH CENTRAL AND SOUTHEAST INDIANA

CITY           SKY/WX    TMP DP  RH WIND       PRES   REMARKS
BLOOMINGTON    MOSUNNY   84  69  60 W6        30.11F
MADISON *+     CLOUDY    86  63  45 SW5       30.13F
SEYMOUR +      SUNNY     90  66  45 CALM      30.09F

$$



USA.gov is the U.S. government's official web portal to all federal, state and local government web resources and services.